This is the latest recevied weather packets stored in our database for station/object EA3EH-1. If no packets are shown the sender has not sent any weather packets the latest 1 day(s).
| Time | Temp. | Humidity | Pressure | Rain* | Wind** | Luminosity | Snow |
|---|---|---|---|---|---|---|---|
| 1778062609 | 17.22° C | 24% | 1009 hPa | 0 mm | - | - | - |
| 1778062007 | 17.78° C | 24% | 1009 hPa | 0 mm | - | - | - |
| 1778061707 | 17.78° C | 25% | 1009 hPa | 0 mm | - | - | - |
| 1778058407 | 15° C | 29% | 1009 hPa | 0 mm | - | - | - |
| 1778057505 | 15° C | 34% | 1008 hPa | 0 mm | - | - | - |
| 1778056905 | 14.44° C | 34% | 1008 hPa | 0 mm | - | - | - |
| 1778056605 | 14.44° C | 35% | 1008 hPa | 0 mm | - | - | - |
| 1778056308 | 14.44° C | 35% | 1008 hPa | 0 mm | - | - | - |
| 1778056005 | 13.89° C | 37% | 1008 hPa | 0 mm | - | - | - |
| 1778055705 | 13.89° C | 37% | 1008 hPa | 0 mm | - | - | - |
| 1778055405 | 13.89° C | 38% | 1008 hPa | 0 mm | - | - | - |
| 1778054805 | 13.33° C | 40% | 1008 hPa | 0 mm | - | - | - |
| 1778053605 | 12.78° C | 57% | 1008 hPa | 0 mm | - | - | - |
| 1778053305 | 12.22° C | 59% | 1008 hPa | 0 mm | - | - | - |
| 1778052405 | 11.67° C | 63% | 1008 hPa | 0 mm | - | - | - |
| 1778051808 | 11.11° C | 64% | 1008 hPa | 0 mm | - | - | - |
| 1778050905 | 10.56° C | 67% | 1008 hPa | 0 mm | - | - | - |
| 1778049705 | 10° C | 68% | 1009 hPa | 0 mm | - | - | - |
| 1778048805 | 10° C | 69% | 1008 hPa | 0 mm | - | - | - |
| 1778048207 | 9.44° C | 69% | 1008 hPa | 0 mm | - | - | - |
| 1778047907 | 10° C | 71% | 1008 hPa | 0 mm | - | - | - |
| 1778047605 | 9.44° C | 71% | 1008 hPa | 0 mm | - | - | - |
| 1778047307 | 9.44° C | 72% | 1008 hPa | 0 mm | - | - | - |
| 1778046407 | 8.89° C | 72% | 1008 hPa | 0 mm | - | - | - |
| 1778046108 | 8.89° C | 73% | 1008 hPa | 0 mm | - | - | - |
* Rain latest hour (hover to see other rain measurements)
** Current wind speed in m/s (hover to see current wind gust speed)